Simultaneous Nadir Overpasses (SNOs) Predictions

Prediction of SNOs between GOES-14 and AQUA Satellite Orbit:

Table of predicted SNOs for the next 14.0 days since TLE Epoch: 2/11/2023
Index Date Time (GOES-14) GOES-14 Lat,Lon AQUA Lat,Lon Distance(km) Time Diff (sec)
1 02/11/2023 08:41:03 0.01,-108.18 -0.77,-104.52 416.14 80
2 02/11/2023 21:02:10 -0.02,-108.24 -0.33,-109.64 159.09 80
3 02/13/2023 20:51:32 -0.02,-108.22 0.35,-106.40 206.52 80
4 02/14/2023 09:12:29 0.02,-108.15 0.74,-111.47 378.58 80
5 02/16/2023 08:59:11 0.02,-108.11 0.02,-108.23 13.53 80
6 02/18/2023 08:43:10 0.02,-108.07 -0.65,-104.97 352.58 80
7 02/18/2023 21:04:15 -0.03,-108.12 -0.44,-110.09 223.34 80
8 02/20/2023 20:53:33 -0.03,-108.09 0.26,-106.83 143.59 80
9 02/21/2023 09:14:29 0.03,-108.03 0.89,-111.89 439.99 80
10 02/23/2023 09:01:06 0.03,-108.00 0.16,-108.63 72.13 80
